Time,TemperatureF,DewpointF,PressureIn,WindDirection,WindDirectionDegrees,WindSpeedMPH,WindSpeedGustMPH,Humidity,HourlyPrecipIn,Conditions,Clouds,dailyrainin,SolarRadiationWatts/m^2,SoftwareType,DateUTC
2013-06-29 00:12:00,75.0,52.0,-100.00,NNE,24,3.0,7.0,44,0.00,,,0.00,0.000000,,2013-06-29 07:12:00,
2013-06-29 00:22:00,75.0,52.0,-100.00,NNE,24,3.0,7.0,44,0.00,,,0.00,0.000000,,2013-06-29 07:22:00,
2013-06-29 00:33:00,75.0,52.0,-100.00,NNE,24,3.0,7.0,44,0.00,,,0.00,0.000000,,2013-06-29 07:33:00,
2013-06-29 00:43:00,75.0,52.0,-100.00,NNE,24,3.0,7.0,44,0.00,,,0.00,0.000000,,2013-06-29 07:43:00,
2013-06-29 01:11:00,76.0,52.0,-100.00,North,350,3.0,10.0,44,0.00,,,0.00,0.000000,,2013-06-29 08:11:00,
2013-06-29 01:21:00,76.0,52.0,-100.00,North,350,3.0,10.0,44,0.00,,,0.00,0.000000,,2013-06-29 08:21:00,
2013-06-29 01:33:00,76.0,52.0,-100.00,North,350,3.0,10.0,44,0.00,,,0.00,0.000000,,2013-06-29 08:33:00,
2013-06-29 01:43:00,76.0,52.0,-100.00,North,350,3.0,10.0,44,0.00,,,0.00,0.000000,,2013-06-29 08:43:00,
2013-06-29 02:12:00,75.0,51.0,-100.00,SSE,157,3.0,10.0,43,0.00,,,0.00,0.000000,,2013-06-29 09:12:00,
2013-06-29 02:22:00,75.0,51.0,-100.00,SSE,157,3.0,10.0,43,0.00,,,0.00,0.000000,,2013-06-29 09:22:00,
2013-06-29 02:33:00,75.0,51.0,-100.00,SSE,157,3.0,10.0,43,0.00,,,0.00,0.000000,,2013-06-29 09:33:00,
2013-06-29 02:42:00,75.0,51.0,-100.00,SSE,157,3.0,10.0,43,0.00,,,0.00,0.000000,,2013-06-29 09:42:00,
2013-06-29 03:11:00,75.0,51.0,-100.00,NNE,16,4.0,9.0,43,-99.99,,,0.00,0.000000,,2013-06-29 10:11:00,
2013-06-29 03:22:00,75.0,51.0,-100.00,NNE,16,4.0,9.0,43,-99.99,,,0.00,0.000000,,2013-06-29 10:22:00,
2013-06-29 03:33:00,75.0,51.0,-100.00,NNE,16,4.0,9.0,43,-99.99,,,0.00,0.000000,,2013-06-29 10:33:00,
2013-06-29 03:42:00,75.0,51.0,-100.00,NNE,16,4.0,9.0,43,-99.99,,,0.00,0.000000,,2013-06-29 10:42:00,
2013-06-29 04:11:00,75.0,50.0,-100.00,NNE,23,3.0,13.0,42,0.00,,,0.00,0.000000,,2013-06-29 11:11:00,
2013-06-29 04:23:00,75.0,50.0,-100.00,NNE,23,3.0,13.0,42,0.00,,,0.00,0.000000,,2013-06-29 11:23:00,
2013-06-29 04:33:00,75.0,50.0,-100.00,NNE,23,3.0,13.0,42,0.00,,,0.00,0.000000,,2013-06-29 11:33:00,
2013-06-29 04:43:00,75.0,50.0,-100.00,NNE,23,3.0,13.0,42,0.00,,,0.00,0.000000,,2013-06-29 11:43:00,
2013-06-29 05:12:00,74.0,50.0,-100.00,NNE,26,3.0,10.0,43,-99.99,,,0.00,0.000000,,2013-06-29 12:12:00,
2013-06-29 05:22:00,74.0,50.0,-100.00,NNE,26,3.0,10.0,43,-99.99,,,0.00,0.000000,,2013-06-29 12:22:00,
2013-06-29 06:11:00,73.0,50.0,-100.00,NNE,13,4.0,11.0,45,-99.99,,,0.00,0.000000,,2013-06-29 13:11:00,
2013-06-29 06:23:00,73.0,50.0,-100.00,NNE,13,4.0,11.0,45,-99.99,,,0.00,0.000000,,2013-06-29 13:23:00,
2013-06-29 06:34:00,73.0,50.0,-100.00,NNE,13,4.0,11.0,45,-99.99,,,0.00,0.000000,,2013-06-29 13:34:00,
2013-06-29 06:43:00,73.0,50.0,-100.00,NNE,13,4.0,11.0,45,-99.99,,,0.00,0.000000,,2013-06-29 13:43:00,
2013-06-29 13:11:00,100.0,53.0,-100.00,East,86,3.0,13.0,21,0.00,,,0.00,1125.000000,,2013-06-29 20:11:00,
2013-06-29 13:23:00,100.0,53.0,-100.00,East,86,3.0,13.0,21,0.00,,,0.00,1125.000000,,2013-06-29 20:23:00,
2013-06-29 13:33:00,100.0,53.0,-100.00,East,86,3.0,13.0,21,0.00,,,0.00,1125.000000,,2013-06-29 20:33:00,
2013-06-29 13:43:00,100.0,53.0,-100.00,East,86,3.0,13.0,21,0.00,,,0.00,1125.000000,,2013-06-29 20:43:00,
2013-06-29 14:11:00,102.0,55.0,-100.00,ENE,61,4.0,12.0,21,0.00,,,0.00,1139.000000,,2013-06-29 21:11:00,
2013-06-29 14:22:00,102.0,55.0,-100.00,ENE,61,4.0,12.0,21,0.00,,,0.00,1139.000000,,2013-06-29 21:22:00,
2013-06-29 14:32:00,102.0,55.0,-100.00,ENE,61,4.0,12.0,21,0.00,,,0.00,1139.000000,,2013-06-29 21:32:00,
2013-06-29 14:42:00,102.0,55.0,-100.00,ENE,61,4.0,12.0,21,0.00,,,0.00,1139.000000,,2013-06-29 21:42:00,
2013-06-29 15:11:00,104.0,54.0,-100.00,East,94,4.0,14.0,19,0.00,,,0.00,1097.000000,,2013-06-29 22:11:00,
2013-06-29 15:21:00,104.0,54.0,-100.00,East,94,4.0,14.0,19,0.00,,,0.00,1097.000000,,2013-06-29 22:21:00,
2013-06-29 15:33:00,104.0,54.0,-100.00,East,94,4.0,14.0,19,0.00,,,0.00,1097.000000,,2013-06-29 22:33:00,
2013-06-29 15:43:00,104.0,54.0,-100.00,East,94,4.0,14.0,19,0.00,,,0.00,1097.000000,,2013-06-29 22:43:00,
2013-06-29 16:12:00,104.0,52.0,-100.00,NNW,347,3.0,14.0,18,0.00,,,0.00,995.000000,,2013-06-29 23:12:00,
2013-06-29 16:23:00,104.0,52.0,-100.00,NNW,347,3.0,14.0,18,0.00,,,0.00,995.000000,,2013-06-29 23:23:00,
2013-06-29 16:33:00,104.0,52.0,-100.00,NNW,347,3.0,14.0,18,0.00,,,0.00,995.000000,,2013-06-29 23:33:00,
2013-06-29 16:43:00,104.0,52.0,-100.00,NNW,347,3.0,14.0,18,0.00,,,0.00,995.000000,,2013-06-29 23:43:00,
2013-06-29 17:11:00,102.0,50.0,-100.00,NE,39,4.0,13.0,18,0.00,,,0.00,833.000000,,2013-06-30 00:11:00,
2013-06-29 17:22:00,102.0,50.0,-100.00,NE,39,4.0,13.0,18,0.00,,,0.00,833.000000,,2013-06-30 00:22:00,
2013-06-29 17:33:00,102.0,50.0,-100.00,NE,39,4.0,13.0,18,0.00,,,0.00,833.000000,,2013-06-30 00:33:00,
2013-06-29 17:42:00,102.0,50.0,-100.00,NE,39,4.0,13.0,18,0.00,,,0.00,833.000000,,2013-06-30 00:42:00,
2013-06-29 18:11:00,100.0,53.0,-100.00,East,82,3.0,14.0,21,0.00,,,0.00,556.000000,,2013-06-30 01:11:00,
2013-06-29 18:22:00,100.0,53.0,-100.00,East,82,3.0,14.0,21,0.00,,,0.00,556.000000,,2013-06-30 01:22:00,
2013-06-29 18:33:00,100.0,53.0,-100.00,East,82,3.0,14.0,21,0.00,,,0.00,556.000000,,2013-06-30 01:33:00,
2013-06-29 18:44:00,100.0,53.0,-100.00,East,82,3.0,14.0,21,0.00,,,0.00,556.000000,,2013-06-30 01:44:00,
2013-06-29 19:11:00,94.0,52.0,-100.00,North,10,3.0,13.0,24,0.00,,,0.00,44.000000,,2013-06-30 02:11:00,
2013-06-29 19:23:00,94.0,52.0,-100.00,North,10,3.0,13.0,24,0.00,,,0.00,44.000000,,2013-06-30 02:23:00,
2013-06-29 19:33:00,94.0,52.0,-100.00,North,10,3.0,13.0,24,0.00,,,0.00,44.000000,,2013-06-30 02:33:00,
2013-06-29 19:43:00,94.0,52.0,-100.00,North,10,3.0,13.0,24,0.00,,,0.00,44.000000,,2013-06-30 02:43:00,
2013-06-29 20:11:00,90.0,52.0,-100.00,SE,144,2.0,14.0,28,0.00,,,0.00,49.000000,,2013-06-30 03:11:00,
2013-06-29 20:23:00,90.0,52.0,-100.00,SE,144,2.0,14.0,28,0.00,,,0.00,49.000000,,2013-06-30 03:23:00,
2013-06-29 20:33:00,90.0,52.0,-100.00,SE,144,2.0,14.0,28,0.00,,,0.00,49.000000,,2013-06-30 03:33:00,
2013-06-29 20:43:00,90.0,52.0,-100.00,SE,144,2.0,14.0,28,0.00,,,0.00,49.000000,,2013-06-30 03:43:00,
2013-06-29 21:12:00,83.0,52.0,-100.00,North,0,2.0,11.0,35,0.00,,,0.00,7.000000,,2013-06-30 04:12:00,
2013-06-29 21:22:00,83.0,52.0,-100.00,North,0,2.0,11.0,35,0.00,,,0.00,7.000000,,2013-06-30 04:22:00,
2013-06-29 21:33:00,83.0,52.0,-100.00,North,0,2.0,11.0,35,0.00,,,0.00,7.000000,,2013-06-30 04:33:00,
2013-06-29 21:43:00,83.0,52.0,-100.00,North,0,2.0,11.0,35,0.00,,,0.00,7.000000,,2013-06-30 04:43:00,
2013-06-29 22:12:00,78.0,53.0,-100.00,North,7,3.0,6.0,42,0.00,,,0.00,0.000000,,2013-06-30 05:12:00,
2013-06-29 22:22:00,78.0,53.0,-100.00,North,7,3.0,6.0,42,0.00,,,0.00,0.000000,,2013-06-30 05:22:00,
2013-06-29 22:33:00,78.0,53.0,-100.00,North,7,3.0,6.0,42,0.00,,,0.00,0.000000,,2013-06-30 05:33:00,
2013-06-29 22:43:00,78.0,53.0,-100.00,North,7,3.0,6.0,42,0.00,,,0.00,0.000000,,2013-06-30 05:43:00,
2013-06-29 23:12:00,77.0,53.0,-100.00,North,9,4.0,7.0,43,0.00,,,0.00,0.000000,,2013-06-30 06:12:00,
2013-06-29 23:23:00,77.0,53.0,-100.00,North,9,4.0,7.0,43,0.00,,,0.00,0.000000,,2013-06-30 06:23:00,
2013-06-29 23:33:00,77.0,53.0,-100.00,North,9,4.0,7.0,43,0.00,,,0.00,0.000000,,2013-06-30 06:33:00,
2013-06-29 23:43:00,77.0,53.0,-100.00,North,9,4.0,7.0,43,0.00,,,0.00,0.000000,,2013-06-30 06:43:00,